[[{"header":{"parameterUnit":"m.s-1","parameterCategory":1,"la1":30.2991,"la2":30.254,"lo1":-89.0895,"lo2":-89.0444,"dy":0.0017,"dx":0.0017,"nx":28,"ny":28,"refTime":"2025-07-28T21:00:00:Z","depth":0,"parameterNumber":2,"parameterNumberName":"U-component_of_WINDS"},"data":[0,0,0,0,0,0,0,0,0,0,0,0,0,0,0,0,0,0,0,0,0,0,0,0,0,0,0,0,0,0,0,0,0,0,0,0,0,0,0,0,0,0,0,0,0,0,0,0,0,0,0,0,0,0,0,0,0,0,0.7653,0.7653,0,0.7593,0.7593,0.7592,0.752,0.7519,0.7518,0.7517,0.7456,0.7456,0.7455,0,0,0,0,0,0,0,0,0,0,0,0,0,0.7707,0.7706,0.7653,0.7653,0.7652,0.7594,0.7593,0.7592,0.752,0.7519,0.7518,0.7516,0.7456,0.7456,0.7455,0,0,0,0,0,0,0,0,0,0,0,0,0,0.7669,0.7706,0.7653,0.7609,0.7604,0.7594,0.7593,0.7592,0.7521,0.7519,0.7517,0.7516,0.7456,0.7456,0.7455,0.7483,0,0,0.7452,0.7452,0,0,0,0,0,0,0,0,0.7671,0.7667,0.7616,0.7612,0.7607,0.7563,0.7589,0.7555,0.7521,0.7553,0.7517,0.7515,0.7493,0.7489,0.7481,0.748,0.7477,0.7452,0.7452,0.7451,0.7451,0,0,0,0,0,0,0,0.7674,0.7669,0.763,0.7616,0.761,0.7593,0.7585,0.7582,0.7533,0.755,0.7544,0.7538,0.749,0.7482,0.7479,0.7476,0.7452,0.7451,0.7451,0.745,0.7496,0.7498,0,0,0,0,0,0,0.7683,0.7672,0.7631,0.7628,0.7636,0.7593,0.7585,0.7579,0.7533,0.7524,0.754,0.7535,0.7485,0.7481,0.7477,0.7507,0.7451,0.745,0.745,0.7495,0.7497,0.7499,0,0,0,0,0,0,0.7685,0.768,0.7634,0.7648,0.7641,0.7594,0.7587,0.7578,0.757,0.7525,0.7516,0.7541,0.7483,0.7478,0.7482,0.7504,0.745,0.7449,0.7492,0.7495,0.7498,0.7568,0,0,0,0,0,0,0.7686,0.7681,0.7691,0.7649,0.7641,0.764,0.7589,0.7578,0.7569,0.7563,0.7524,0.7516,0.7482,0.7484,0.7481,0.7502,0.7448,0.749,0.7494,0.7497,0.7563,0.7572,0.758,0,0,0,0,0,0.7689,0.7713,0.7692,0.7687,0.7652,0.7641,0.7636,0.7596,0.7571,0.7581,0.7552,0.7517,0.7502,0.7485,0.7481,0.7502,0.7489,0.7493,0.7497,0.7559,0.7571,0.758,0,0,0,0,0,0,0.7758,0.7706,0.7682,0.7694,0.7673,0.7629,0.764,0.7609,0.7594,0.7589,0.754,0.7532,0.7542,0.7522,0.7504,0.7527,0.749,0.7494,0.754,0.755,0.7558,0.7562,0.7448,0,0,0,0,0,0.7775,0.777,0.7725,0.774,0.773,0.7687,0.7681,0.7652,0.7628,0.7619,0.759,0.7568,0.7559,0.7553,0.7542,0.7561,0.7551,0.7573,0.7582,0.7589,0.7592,0.7601,0.7611,0.7511,0.7511,0.7511,0,0,0.7809,0.778,0.778,0.7753,0.7733,0.773,0.768,0.7678,0.7676,0.7618,0.762,0.7599,0.7571,0.7583,0.7587,0.7567,0.7618,0.7594,0.76,0.7599,0.7606,0.7616,0.7624,0.7514,0.7514,0.7513,0,0,0.7869,0.7847,0.7857,0.7838,0.7809,0.778,0.7783,0.7745,0.7728,0.773,0.7687,0.7683,0.7668,0.765,0.7639,0.7695,0.7663,0.7693,0.7737,0.7747,0.7755,0.7761,0.7782,0.7789,0.7697,0.7697,0.7697,0,0.7915,0.7908,0.7866,0.7867,0.7857,0.7806,0.7816,0.78,0.7769,0.7763,0.7741,0.7722,0.7699,0.7707,0.7721,0.7713,0.7715,0.7697,0.7757,0.7763,0.7769,0.7788,0.7795,0.7701,0.77,0.77,0.77,0,0.7967,0.7963,0.7975,0.7946,0.7937,0.7943,0.7902,0.7898,0.7871,0.7845,0.7848,0.782,0.7802,0.7802,0.7775,0.7806,0.7794,0.7766,0.7728,0.7783,0.78,0.7806,0.7706,0.7705,0.7704,0.7703,0,0,0.8067,0.8017,0.8021,0.8008,0.7973,0.7969,0.7974,0.7957,0.7955,0.7936,0.7938,0.7927,0.7901,0.7888,0.7859,0.7868,0.7915,0.7838,0.7837,0.7853,0.7947,0.7969,0.7978,0.7894,0.7895,0.7896,0.795,0,0.8121,0.8124,0.8087,0.8101,0.8098,0.805,0.8054,0.8033,0.801,0.8003,0.7977,0.797,0.7936,0.7929,0.7935,0.7908,0.7933,0.7903,0.7895,0.7896,0.7903,0.7986,0.8008,0.8061,0.7956,0.7957,0.7958,0,0.8183,0.8168,0.8182,0.8147,0.8144,0.8148,0.813,0.8125,0.8101,0.8084,0.8071,0.8038,0.8041,0.8005,0.8008,0.7989,0.7984,0.797,0.7971,0.7968,0.7929,0.7985,0.8076,0.8084,0.7968,0.7967,0.7966,0,0.8255,0.8238,0.8244,0.8235,0.8195,0.8199,0.8182,0.8157,0.8149,0.8134,0.8129,0.8115,0.8107,0.8096,0.8061,0.8038,0.8068,0.803,0.8054,0.8055,0.8061,0.8061,0.8152,0.8059,0.8059,0.8059,0.8059,0,0.8318,0.8328,0.8276,0.828,0.829,0.8249,0.826,0.8239,0.8217,0.8217,0.8175,0.8175,0.8129,0.8124,0.8096,0.8103,0.81,0.8086,0.8078,0.8089,0.8091,0.8084,0.808,0.8061,0.806,0.806,0.806,0,0.8399,0.8365,0.8368,0.8331,0.8322,0.8331,0.8299,0.8301,0.8276,0.8276,0.8274,0.8234,0.8227,0.8191,0.8174,0.8156,0.8172,0.8158,0.818,0.8175,0.8201,0.8199,0.829,0.83,0.8202,0.8203,0.8204,0,0.8441,0.8448,0.8412,0.8409,0.8394,0.8389,0.8382,0.8342,0.8336,0.8311,0.8316,0.8306,0.8295,0.8285,0.8255,0.8243,0.8227,0.8261,0.8225,0.8236,0.8228,0.8227,0.8228,0.8268,0.8269,0.827,0.8271,0,0.8519,0.8503,0.8493,0.8479,0.8472,0.8459,0.8443,0.8443,0.8398,0.8394,0.8386,0.8378,0.8363,0.8353,0.8336,0.8319,0.8288,0.8283,0.8287,0.8298,0.8311,0.8304,0.82,0.828,0.8279,0.8279,0.8278,0.8278,0.8582,0.8586,0.8562,0.8553,0.8538,0.8525,0.8525,0.8501,0.8493,0.8478,0.8455,0.845,0.8428,0.8402,0.8388,0.8384,0.8366,0.8374,0.8375,0.8377,0.8383,0.8313,0.8381,0.8381,0.8381,0.838,0.838,0,0.8657,0.864,0.8633,0.8613,0.8607,0.8579,0.8561,0.8558,0.8554,0.8536,0.8527,0.8518,0.8509,0.848,0.8467,0.847,0.8456,0.8468,0.8467,0.8464,0.84,0.8397,0.848,0.848,0.848,0.848,0.848,0.848,0.8696,0.8702,0.8683,0.8681,0.8663,0.8659,0.8651,0.8639,0.8624,0.8617,0.8609,0.859,0.8568,0.8554,0.8545,0.8536,0.8533,0.8551,0.8538,0.8478,0.8468,0.8459,0.8456,0.8551,0.8551,0.8602,0.8603,0.8603]},{"header":{"parameterUnit":"m.s-1","parameterCategory":1,"la1":30.2991,"la2":30.254,"lo1":-89.0895,"lo2":-89.0444,"dy":0.0017,"dx":0.0017,"nx":28,"ny":28,"refTime":"2025-07-28T21:00:00:Z","depth":0,"parameterNumber":3,"parameterNumberName":"V-component_of_WINDS"},"data":[0,0,0,0,0,0,0,0,0,0,0,0,0,0,0,0,0,0,0,0,0,0,0,0,0,0,0,0,0,0,0,0,0,0,0,0,0,0,0,0,0,0,0,0,0,0,0,0,0,0,0,0,0,0,0,0,0,0,3.1027,3.1027,0,3.0973,3.0973,3.0972,3.097,3.097,3.0971,3.0972,3.091,3.0907,3.0905,0,0,0,0,0,0,0,0,0,0,0,0,0,3.1123,3.1121,3.1027,3.1027,3.1026,3.0973,3.0973,3.0972,3.097,3.097,3.0971,3.0972,3.091,3.0908,3.0905,0,0,0,0,0,0,0,0,0,0,0,0,0,3.1076,3.112,3.1028,3.1019,3.1017,3.0974,3.0973,3.0972,3.0969,3.097,3.0971,3.0972,3.0911,3.0908,3.0904,3.0864,0,0,3.0894,3.0893,0,0,0,0,0,0,0,0,3.1079,3.1072,3.1021,3.1019,3.1018,3.0979,3.0983,3.0935,3.0969,3.0987,3.0972,3.0973,3.0932,3.0927,3.0914,3.0861,3.0858,3.0894,3.0892,3.089,3.0889,0,0,0,0,0,0,0,3.1082,3.1075,3.1006,3.102,3.1018,3.1015,3.101,3.0974,3.0954,3.0986,3.0986,3.098,3.0931,3.0917,3.0912,3.0857,3.0894,3.0891,3.0889,3.0887,3.0768,3.0767,0,0,0,0,0,0,3.1088,3.1078,3.1008,3.1004,3.1052,3.1013,3.1007,3.0991,3.0955,3.095,3.0979,3.098,3.0923,3.0916,3.091,3.086,3.089,3.0887,3.0885,3.0769,3.0767,3.0766,0,0,0,0,0,0,3.109,3.1082,3.101,3.1041,3.1032,3.101,3.0992,3.0989,3.0976,3.095,3.0945,3.0969,3.0923,3.0915,3.0876,3.0858,3.0886,3.0882,3.077,3.0768,3.0767,3.076,0,0,0,0,0,0,3.1093,3.1082,3.1068,3.1041,3.103,3.0978,3.0991,3.0987,3.097,3.0971,3.0939,3.0935,3.0923,3.0881,3.0872,3.0854,3.088,3.0772,3.0769,3.0767,3.0762,3.0758,3.0755,0,0,0,0,0,3.1096,3.1067,3.1067,3.1059,3.1012,3.0977,3.0971,3.096,3.0969,3.0954,3.0937,3.0936,3.0862,3.0877,3.0867,3.0848,3.0773,3.077,3.0768,3.0763,3.0759,3.0756,0,0,0,0,0,0,3.109,3.1063,3.1063,3.1025,3.1004,3.0977,3.0957,3.0956,3.093,3.0931,3.0917,3.0909,3.0871,3.0855,3.0873,3.0806,3.0818,3.0813,3.0818,3.0814,3.0811,3.0815,3.0877,0,0,0,0,0,3.1085,3.1061,3.1038,3.1006,3.0995,3.0978,3.0962,3.0956,3.0933,3.0923,3.0903,3.0879,3.085,3.0831,3.0803,3.076,3.0752,3.0741,3.0738,3.0736,3.0731,3.0707,3.0702,3.0758,3.0758,3.0758,0,0,3.1073,3.1055,3.104,3.1004,3.0987,3.0961,3.097,3.0942,3.0922,3.0918,3.088,3.0865,3.0836,3.0795,3.0776,3.0781,3.0715,3.0732,3.0731,3.0728,3.0704,3.0699,3.0694,3.0756,3.0756,3.0757,0,0,3.1037,3.1022,3.0994,3.0977,3.0952,3.0941,3.0934,3.0907,3.0898,3.0861,3.0857,3.0832,3.0782,3.0762,3.0746,3.0703,3.0701,3.0694,3.0678,3.0654,3.065,3.0646,3.063,3.0625,3.0691,3.069,3.069,0,3.1025,3.0987,3.0979,3.0951,3.0935,3.0933,3.0903,3.0887,3.0852,3.084,3.0847,3.0786,3.0766,3.072,3.071,3.0697,3.0687,3.0698,3.0651,3.0647,3.0643,3.0629,3.0623,3.069,3.069,3.069,3.069,0,3.0973,3.0947,3.0927,3.0897,3.0878,3.085,3.0835,3.0817,3.0813,3.08,3.0761,3.0738,3.0706,3.0694,3.0688,3.0647,3.0651,3.0655,3.0666,3.0638,3.0623,3.0618,3.0689,3.0689,3.0689,3.069,0,0,3.0932,3.0899,3.0891,3.0878,3.085,3.0829,3.0799,3.077,3.0754,3.0731,3.0705,3.0664,3.0667,3.0648,3.064,3.062,3.0587,3.0625,3.0625,3.0619,3.054,3.0538,3.0531,3.0586,3.0585,3.0584,3.0542,0,3.0893,3.0844,3.0836,3.0792,3.0767,3.0765,3.0739,3.0718,3.0706,3.0681,3.0666,3.0638,3.0645,3.0633,3.0613,3.0596,3.0571,3.0599,3.056,3.0559,3.0568,3.0524,3.0521,3.0483,3.0537,3.0536,3.0535,0,3.0841,3.0819,3.0774,3.075,3.0739,3.0717,3.0689,3.0666,3.0642,3.0634,3.0614,3.0608,3.0576,3.0589,3.0544,3.0563,3.0547,3.0536,3.0534,3.053,3.0545,3.0518,3.047,3.0465,3.0526,3.0527,3.0528,0,3.0816,3.0774,3.0742,3.073,3.0702,3.0686,3.0673,3.065,3.0633,3.0608,3.0596,3.0567,3.0551,3.0527,3.0513,3.0524,3.0469,3.0481,3.046,3.046,3.0448,3.0449,3.0397,3.0438,3.0438,3.0438,3.0438,0,3.0774,3.0745,3.073,3.071,3.0678,3.0668,3.0636,3.0623,3.0603,3.0578,3.0574,3.0551,3.0534,3.0508,3.0497,3.0461,3.0453,3.0445,3.0442,3.0445,3.0446,3.0434,3.0436,3.0437,3.0437,3.0437,3.0438,0,3.0739,3.0728,3.0692,3.0669,3.0663,3.064,3.0619,3.0598,3.0586,3.0556,3.0548,3.0528,3.0498,3.0482,3.0443,3.0435,3.0394,3.0393,3.0403,3.0402,3.0382,3.0384,3.032,3.0311,3.0359,3.0358,3.0358,0,3.0713,3.0692,3.0667,3.0652,3.0639,3.0614,3.0598,3.0587,3.0569,3.054,3.0523,3.0492,3.0468,3.0418,3.0399,3.0369,3.0367,3.0347,3.0362,3.0366,3.0366,3.0368,3.0366,3.0344,3.0343,3.0343,3.0343,0,3.0667,3.0663,3.0641,3.0616,3.0597,3.0576,3.0556,3.0543,3.0528,3.0508,3.0478,3.0459,3.0421,3.039,3.0359,3.0343,3.034,3.0338,3.0332,3.0334,3.0341,3.0337,3.0396,3.0339,3.034,3.034,3.034,3.034,3.0636,3.0617,3.0597,3.0572,3.0556,3.0537,3.0517,3.0504,3.0479,3.0449,3.0443,3.0411,3.0387,3.0345,3.0329,3.0302,3.0306,3.0297,3.0294,3.0292,3.0291,3.0346,3.0296,3.0296,3.0296,3.0296,3.0296,0,3.059,3.0578,3.0555,3.0528,3.0508,3.0509,3.0486,3.0469,3.0442,3.0421,3.0397,3.0362,3.0333,3.0312,3.0282,3.0264,3.0262,3.0257,3.0258,3.0254,3.0289,3.0298,3.0259,3.0259,3.0259,3.0259,3.0259,3.0259,3.0564,3.0532,3.0526,3.0486,3.0473,3.0444,3.0431,3.0413,3.0396,3.0359,3.0335,3.0323,3.0301,3.0269,3.0242,3.0236,3.0225,3.022,3.0214,3.0248,3.0251,3.0255,3.0263,3.0218,3.0218,3.0181,3.018,3.018]}]]